Weather History for Crestview, FL

Change the Weather History Date:

Wednesday, December 5, 2012

  Actual Average Record
Temperature  
Mean Temperature 60 °F -  
Max Temperature 73 °F - - ()
Min Temperature 48 °F - - ()
Degree Days  
Heating Degree Days 4    
Growing Degree Days 10 (Base 50)    
Moisture  
Dew Point 52 °F    
Average Humidity 97    
Maximum Humidity 100    
Minimum Humidity 57    
Precipitation  
Precipitation 0.01 in - - ()
Sea Level Pressure  
Sea Level Pressure 30.17 in    
Wind  
Wind Speed 1 mph (SSE)    
Max Wind Speed 7 mph    
Max Gust Speed -    
Visibility 3 miles    
Events Fog    
T = Trace of Precipitation, MM = Missing Value Source: NWS Daily Summary

Daily Weather History Graph

Daily Weather History Graph

Search for Another Location

Airport:

Trip Planner

Search our weather history database for the weather conditions in past years. The results will help you decide how hot, cold, wet, or windy it might be!

Date:

Astronomy

Dec. 05, 2012 Rise Set
Actual Time 6:29 AM CST 4:44 PM CST
Civil Twilight 6:02 AM CST 5:10 PM CST
Nautical Twilight 5:33 AM CST 5:40 PM CST
Astronomical Twilight 5:03 AM CST 6:10 PM CST
Moon 11:13 PM CST (12/5) 11:10 AM CST (12/5)
Length of Visible Light 11h 07m
Length of Day
10h 15m
Waning Gibbous, 59% of the Moon is Illuminated
Dec 5
Waning Gibbous
Dec 6
Last Quarter
Dec 13
New
Dec 19
First Quarter
Dec 28
Full

Hourly Weather History & Observations

Time (CST) Temp. Dew Point Humidity Pressure Visibility Wind Dir Wind Speed Gust Speed Precip Events Conditions
12:01 AM 59.0 °F 59.0 °F 100% 30.19 in 1.0 mi SSW 3.5 mph - N/A   Clear
12:03 AM 60.8 °F 60.8 °F 100% 30.18 in 1.2 mi South 3.5 mph - N/A   Clear
12:06 AM 59.0 °F 59.0 °F 100% 30.18 in 1.0 mi Calm Calm - N/A   Clear
12:08 AM 59.0 °F 59.0 °F 100% 30.18 in 0.8 mi Calm Calm - N/A   Clear
12:09 AM 59.0 °F 59.0 °F 100% 30.18 in 0.5 mi Calm Calm - N/A Fog Fog
12:13 AM 57.2 °F 57.2 °F 100% 30.18 in 0.2 mi Calm Calm - N/A Fog Fog
12:38 AM 53.6 °F 53.6 °F 100% 30.18 in 0.5 mi Calm Calm - N/A Fog Fog
12:41 AM 53.6 °F 53.6 °F 100% 30.18 in 0.8 mi Calm Calm - N/A   Clear
12:49 AM 53.6 °F 53.6 °F 100% 30.18 in 0.5 mi Calm Calm - N/A Fog Fog
12:55 AM 54.1 °F 53.8 °F 99% 30.19 in 0.5 mi Calm Calm - N/A Fog Fog
1:04 AM 53.6 °F 53.6 °F 100% 30.18 in 0.8 mi Calm Calm - N/A   Clear
1:06 AM 53.6 °F 53.6 °F 100% 30.18 in 0.5 mi Calm Calm - N/A Fog Fog
1:15 AM 51.8 °F 51.8 °F 100% 30.18 in 0.8 mi Calm Calm - N/A   Clear
1:20 AM 53.6 °F 51.8 °F 94% 30.18 in 1.0 mi Calm Calm - N/A   Clear
1:29 AM 51.8 °F 51.8 °F 100% 30.18 in 0.8 mi Calm Calm - N/A   Clear
1:32 AM 53.6 °F 51.8 °F 94% 30.18 in 0.5 mi Calm Calm - N/A Fog Fog
1:37 AM 53.6 °F 53.6 °F 100% 30.18 in 0.2 mi Calm Calm - N/A Fog Fog
1:43 AM 53.6 °F 51.8 °F 94% 30.18 in 0.5 mi Calm Calm - N/A Fog Fog
1:55 AM 52.3 °F 52.0 °F 99% 30.18 in 0.5 mi Calm Calm - N/A Fog Fog
2:02 AM 51.8 °F 51.8 °F 100% 30.18 in 0.8 mi Calm Calm - N/A   Clear
2:09 AM 51.8 °F 51.8 °F 100% 30.18 in 1.0 mi Calm Calm - N/A   Clear
2:22 AM 51.8 °F 51.8 °F 100% 30.18 in 1.2 mi Calm Calm - N/A   Clear
2:27 AM 51.8 °F 51.8 °F 100% 30.18 in 1.0 mi Calm Calm - N/A   Clear
2:29 AM 51.8 °F 51.8 °F 100% 30.18 in 0.8 mi Calm Calm - N/A   Clear
2:31 AM 51.8 °F 51.8 °F 100% 30.17 in 0.5 mi Calm Calm - N/A Fog Fog
2:46 AM 51.8 °F 51.8 °F 100% 30.17 in 0.8 mi Calm Calm - N/A   Clear
2:55 AM 51.1 °F 50.7 °F 99% 30.17 in 0.8 mi Calm Calm - N/A   Clear
2:59 AM 50.0 °F 50.0 °F 100% 30.17 in 0.5 mi Calm Calm - N/A Fog Fog
3:06 AM 51.8 °F 51.8 °F 100% 30.17 in 0.2 mi Calm Calm - N/A Fog Fog
3:11 AM 51.8 °F 51.8 °F 100% 30.17 in 0.5 mi Calm Calm - N/A Fog Fog
3:18 AM 51.8 °F 51.8 °F 100% 30.17 in 0.8 mi Calm Calm - N/A   Clear
3:21 AM 51.8 °F 51.8 °F 100% 30.17 in 0.5 mi Calm Calm - N/A Fog Fog
3:35 AM 50.0 °F 50.0 °F 100% 30.17 in 0.8 mi Calm Calm - N/A   Clear
3:38 AM 50.0 °F 50.0 °F 100% 30.17 in 1.0 mi Calm Calm - N/A   Clear
3:41 AM 50.0 °F 50.0 °F 100% 30.17 in 1.2 mi ENE 3.5 mph - N/A   Clear
3:45 AM 50.0 °F 50.0 °F 100% 30.17 in 1.0 mi Calm Calm - N/A   Clear
3:50 AM 50.0 °F 50.0 °F 100% 30.17 in 0.8 mi Calm Calm - N/A   Clear
3:55 AM 50.7 °F 50.7 °F 100% 30.17 in 0.8 mi Calm Calm - N/A   Clear
3:56 AM 51.8 °F 51.8 °F 100% 30.17 in 1.0 mi Calm Calm - N/A   Clear
3:58 AM 51.8 °F 51.8 °F 100% 30.17 in 1.2 mi Calm Calm - N/A   Clear
3:59 AM 51.8 °F 51.8 °F 100% 30.17 in 1.5 mi Calm Calm - N/A   Clear
4:01 AM 51.8 °F 51.8 °F 100% 30.17 in 2.5 mi Calm Calm - N/A   Clear
4:02 AM 51.8 °F 51.8 °F 100% 30.17 in 3.0 mi Calm Calm - N/A   Clear
4:07 AM 50.0 °F 50.0 °F 100% 30.17 in 2.5 mi Calm Calm - N/A   Clear
4:08 AM 50.0 °F 50.0 °F 100% 30.17 in 1.8 mi Calm Calm - N/A   Clear
4:09 AM 50.0 °F 50.0 °F 100% 30.17 in 1.2 mi Calm Calm - N/A   Clear
4:10 AM 50.0 °F 50.0 °F 100% 30.17 in 1.0 mi Calm Calm - N/A   Clear
4:12 AM 50.0 °F 50.0 °F 100% 30.17 in 0.8 mi Calm Calm - N/A   Clear
4:15 AM 50.0 °F 50.0 °F 100% 30.17 in 0.5 mi Calm Calm - N/A Fog Fog
4:43 AM 50.0 °F 50.0 °F 100% 30.18 in 0.8 mi Calm Calm - N/A   Clear
4:46 AM 50.0 °F 50.0 °F 100% 30.18 in 1.0 mi Calm Calm - N/A   Clear
4:47 AM 50.0 °F 50.0 °F 100% 30.18 in 1.2 mi Calm Calm - N/A   Clear
4:48 AM 50.0 °F 50.0 °F 100% 30.18 in 1.5 mi Calm Calm - N/A   Clear
4:50 AM 48.2 °F 48.2 °F 100% 30.18 in 1.2 mi Calm Calm - N/A   Clear
4:52 AM 48.2 °F 48.2 °F 100% 30.18 in 1.0 mi Calm Calm - N/A   Clear
4:54 AM 48.2 °F 48.2 °F 100% 30.18 in 0.8 mi Calm Calm - N/A   Clear
4:55 AM 48.4 °F 48.4 °F 100% 30.18 in 1.0 mi Calm Calm - N/A   Clear
4:56 AM 48.2 °F 48.2 °F 100% 30.18 in 0.5 mi Calm Calm - N/A Fog Fog
5:09 AM 48.2 °F 48.2 °F 100% 30.18 in 0.8 mi Calm Calm - N/A   Clear
5:12 AM 48.2 °F 48.2 °F 100% 30.18 in 1.0 mi Calm Calm - N/A   Clear
5:14 AM 48.2 °F 48.2 °F 100% 30.18 in 1.2 mi Calm Calm - N/A   Clear
5:15 AM 48.2 °F 48.2 °F 100% 30.18 in 1.5 mi Calm Calm - N/A   Clear
5:18 AM 48.2 °F 48.2 °F 100% 30.18 in 2.0 mi Calm Calm - N/A   Clear
5:22 AM 48.2 °F 48.2 °F 100% 30.19 in 1.8 mi Calm Calm - N/A   Clear
5:26 AM 48.2 °F 48.2 °F 100% 30.19 in 1.2 mi Calm Calm - N/A   Clear
5:28 AM 48.2 °F 48.2 °F 100% 30.19 in 1.0 mi Calm Calm - N/A   Clear
5:30 AM 48.2 °F 48.2 °F 100% 30.19 in 0.8 mi Calm Calm - N/A   Clear
5:33 AM 48.2 °F 48.2 °F 100% 30.19 in 0.5 mi Calm Calm - N/A Fog Fog
5:55 AM 49.8 °F 49.8 °F 100% 30.19 in 0.8 mi Calm Calm - N/A   Clear
5:56 AM 50.0 °F 50.0 °F 100% 30.19 in 1.0 mi Calm Calm - N/A   Clear
5:58 AM 50.0 °F 50.0 °F 100% 30.19 in 1.2 mi Calm Calm - N/A   Clear
6:01 AM 50.0 °F 50.0 °F 100% 30.19 in 1.5 mi Calm Calm - N/A   Clear
6:06 AM 48.2 °F 48.2 °F 100% 30.19 in 1.2 mi Calm Calm - N/A   Clear
6:14 AM 48.2 °F 48.2 °F 100% 30.18 in 1.5 mi Calm Calm - N/A   Clear
6:23 AM 48.2 °F 48.2 °F 100% 30.19 in 2.0 mi Calm Calm - N/A   Clear
6:25 AM 48.2 °F 48.2 °F 100% 30.19 in 2.5 mi Calm Calm - N/A   Clear
6:27 AM 50.0 °F 50.0 °F 100% 30.19 in 3.0 mi Calm Calm - N/A   Clear
6:55 AM 49.8 °F 49.8 °F 100% 30.19 in 10.0 mi East 3.5 mph - N/A   Clear
8:55 AM 62.1 °F 62.1 °F 100% 30.21 in 10.0 mi Calm Calm - 0.01 in   Mostly Cloudy
9:55 AM 66.9 °F 60.3 °F 79% 30.20 in 10.0 mi East 4.6 mph - N/A   Mostly Cloudy
10:55 AM 71.2 °F 60.4 °F 69% 30.19 in 10.0 mi SSE 5.8 mph - N/A   Mostly Cloudy
11:55 AM 72.0 °F 59.5 °F 65% 30.15 in 10.0 mi ESE 4.6 mph - N/A   Mostly Cloudy
12:55 PM 71.6 °F 58.6 °F 64% 30.12 in 10.0 mi South 6.9 mph - N/A   Mostly Cloudy
1:55 PM 73.0 °F 59.0 °F 61% 30.09 in 10.0 mi SSE 5.8 mph - N/A   Mostly Cloudy
2:55 PM 72.5 °F 56.7 °F 57% 30.09 in 10.0 mi South 4.6 mph - N/A   Mostly Cloudy
3:55 PM 71.1 °F 57.7 °F 63% 30.08 in 10.0 mi South 6.9 mph - N/A   Mostly Cloudy
4:55 PM 66.4 °F 59.4 °F 78% 30.09 in 10.0 mi South 3.5 mph - N/A   Clear
4:58 PM 66.4 °F 59.4 °F 78% 30.09 in 10.0 mi South 3.5 mph - N/A   Mostly Cloudy
5:55 PM 61.5 °F 57.7 °F 87% 30.09 in 10.0 mi Calm Calm - N/A   Mostly Cloudy
6:55 PM 59.5 °F 58.5 °F 96% 30.09 in 10.0 mi Calm Calm - N/A   Mostly Cloudy
7:55 PM 58.3 °F 57.9 °F 99% 30.09 in 10.0 mi Calm Calm - N/A   Mostly Cloudy
8:55 PM 57.6 °F 57.4 °F 99% 30.09 in 10.0 mi Calm Calm - N/A   Mostly Cloudy
9:55 PM 56.7 °F 56.3 °F 99% 30.09 in 10.0 mi Calm Calm - N/A   Scattered Clouds
10:55 PM 54.5 °F 54.3 °F 99% 30.09 in 5.0 mi North 1.2 mph - N/A   Scattered Clouds
11:55 PM 53.6 °F 53.2 °F 99% 30.08 in 5.0 mi NNW 1.2 mph - N/A   Scattered Clouds